Simultaneous Nadir Overpasses (SNOs) Predictions

Prediction of SNOs between LANDSAT-8 and METOP-A Satellite Orbit:

Table of predicted SNOs for the next 14.0 days since TLE Epoch: 5/17/2019
Index Date (LANDSAT-8) Time (LANDSAT-8) Lat,Lon (LANDSAT-8) SZA (LANDSAT-8 ) Date (METOP-A) Time (METOP-A) Lat,Lon (METOP-A) SZA (METOP-A ) Distance(km) Time Diff (sec)
1 05/19/2019 16:53:09 81.47, -26.89 64.51 05/19/2019 16:52:59 81.47, -26.93 64.50 0.69 10
2 05/19/2019 17:42:36 -81.47, 140.75 115.50 05/19/2019 17:43:39 -81.47, 140.77 115.47 0.39 63
3 05/22/2019 12:27:25 81.47, 39.50 63.93 05/22/2019 12:27:14 81.47, 39.37 63.91 2.02 11
4 05/22/2019 13:16:52 -81.47,-152.84 116.08 05/22/2019 13:17:54 -81.47,-152.91 116.06 1.24 62
5 05/25/2019 08:01:42 81.46, 105.85 63.38 05/25/2019 08:01:29 81.47, 106.05 63.40 3.25 13
6 05/25/2019 08:51:09 -81.47, -86.46 116.62 05/25/2019 08:52:10 -81.47, -86.63 116.61 2.85 61
7 05/28/2019 03:35:59 81.46, 172.18 62.88 05/28/2019 03:35:45 81.47, 172.29 62.89 2.06 14
8 05/28/2019 04:25:26 -81.46, -20.12 117.12 05/28/2019 04:26:25 -81.47, -19.99 117.07 2.24 59
9 05/30/2019 23:10:14 81.47,-121.13 62.47 05/30/2019 23:09:59 81.47,-121.11 62.47 0.49 15




NCC Satellite Simultaneous Nadir Overpasses (SNOs) Prediction Service
